Regional Weather Roundup
Issued by NWS

Home | Current Version | Previous Version | Text Only | Print | Product List | Glossary Off
Versions: 1 2 3 4 5 6 7 8 9 10 11 12 13 14 15 16 17 18 19 20 21 22 23 24 25 26 27

000
ASUS45 KBOU 081207
RWRCO

WEATHER ROUNDUP FOR COLORADO
NATIONAL WEATHER SERVICE DENVER/BOULDER CO
500 AM MST THU DEC 08 2016

NOTE: "FAIR" INDICATES FEW OR NO CLOUDS BELOW 12000 FEET WITH NO
SIGNIFICANT WEATHER AND/OR OBSTRUCTIONS TO VISIBILITY.

COZ001>005-013-030-031-081300-
...NORTHWEST COLORADO...

CITY           SKY/WX    TMP DP  RH WIND       PRES   REMARKS
CRAIG          FAIR      -7 -13  75 CALM      30.30S
HAYDEN         FAIR      -4 -13  65 E10       30.26S WCI -21
MEEKER         FAIR      -3  -8  79 CALM      30.27S
MOUNT WERNER   NOT AVBL
STEAMBOAT SPGS FAIR     -11 -16  80 CALM      30.26S
WALDEN           N/A    -24 -31  69 SE5       30.20S WCI -38
$$

COZ006>008-011-081300-
...WEST CENTRAL VALLEYS...

CITY           SKY/WX    TMP DP  RH WIND       PRES   REMARKS
GRAND JUNCTION FAIR      17   7  64 SE6       30.32S WCI   9
MONTROSE       CLOUDY    13   5  70 SE3       30.34R
EAGLE          FAIR      -5  -9  83 E5        30.36S WCI -16
RIFLE          FAIR       8   3  80 CALM      30.34S
DELTA          NOT AVBL
NUCLA          CLOUDY    12   1  62 CALM      30.32R
$$

COZ017>023-064>068-081300-
...SOUTHWEST COLORADO...

CITY           SKY/WX    TMP DP  RH WIND       PRES   REMARKS
DURANGO        FAIR       8  -1  66 CALM      30.26R
CORTEZ         FAIR       9   4  80 CALM      30.27S
PAGOSA SPRINGS FAIR       2  -4  74 CALM      30.24R
TELLURIDE      CLOUDY    11  -8  43 CALM      30.16F
WOLF CREEK PAS FAIR       0 -11  60 S17       30.12R WCI -21
$$

COZ009-010-012-014-032>034-037-058>063-081300-
...CENTRAL COLORADO...

CITY           SKY/WX    TMP DP  RH WIND       PRES   REMARKS
ASPEN          CLOUDY     1  -5  75 CALM      30.19S
BUENA VISTA    CLOUDY     0  -8  68 NW7       30.22S WCI -13
COPPER MTN     CLOUDY     5 -26  23 MISG      29.99S
BERTHOUD PASS  FAIR      -9 -22  54 NW20      29.93R WCI -34
COTTONWOOD PAS CLOUDY     1  -4  78 E5        30.08S WCI  -8
GUNNISON       CLOUDY    -4  -9  79 CALM      30.29S
KREMMLING      MOCLDY   N/A N/A N/A CALM      30.31S
LEADVILLE      CLOUDY    -7 -13  75 NE3       30.07S
MONARCH PASS   CLOUDY     0  -9  65 W26       30.13R WCI -25
SALIDA         CLOUDY     4   1  83 CALM      30.32S
SUNLIGHT       CLOUDY   N/A N/A N/A SW12G18   30.11S
WILKERSON PASS CLOUDY     0  -9  65 SW12      30.03S WCI -18
$$

COZ069>075-081300-
...SAN LUIS VALLEY/SANGRE DE CRISTO MOUNTAINS...

CITY           SKY/WX    TMP DP  RH WIND       PRES   REMARKS
ALAMOSA        FAIR      -6 -10  83 CALM      30.23R
LA VETA PASS   FAIR       5   1  85 NE21G30   30.07S WCI -16
SAGUACHE       MOCLDY     5  -6  61 NW16G22   30.22S WCI -14
$$

COZ035-036-038>040-081300-
...NORTHERN COLORADO FRONT RANGE...

CITY           SKY/WX    TMP DP  RH WIND       PRES   REMARKS
DENVER INTL AP FAIR      -2  -8  76 W3        30.37R
DMNS CITY PARK   N/A      1  -2  86 E7        30.38S WCI -12
AURORA         PTCLDY    -2  -6  84 S5        30.35S WCI -13
FRONT RANGE AP FAIR      -6 -11  77 S6        30.37S WCI -18
ERIE MUNI ARPT CLOUDY     1  -2  85 CALM      30.40S
BOULDER MUN AP CLOUDY     5   1  85 CALM      30.38S
CENTENNIAL     FAIR      -4  -9  79 CALM      30.33S
BROOMFIELD     CLOUDY     9   5  85 CALM      30.36R
FORT COLLINS   FAIR      -4  -9  77 N5        30.42S WCI -15
LONGMONT       CLOUDY     7   3  83 CALM      30.43S
$$

COZ041-046-047-076>085-087-088-081300-
...PIKES PEAK/PALMER DIVIDE AND SOUTHERN FOOTHILLS...

CITY           SKY/WX    TMP DP  RH WIND       PRES   REMARKS
COLO. SPRINGS  LGT SNOW   7   3  84 SE3       30.33S FOG
A. F. ACADEMY  CLOUDY     5   1  83 S3        30.28S
SCHRIEVER AFB  NOT AVBL
ELLICOTT       LGT RAIN N/A N/A N/A SW5         N/A
FALCON         LGT SNOW   5   1  86 S7        30.28S WCI  -7
FORT CARSON    FLURRIES   7   3  85 W2        30.33S
LIMON          FAIR     -13 -18  78 CALM      30.39S
MONUMENT HILL  FAIR       0  -4  85 SW9       30.25S WCI -16
TRINIDAD       LGT SNOW  11   7  84 SE6       30.35F FOG     WCI   1
$$

COZ042>045-048>051-090-091-081300-
...NORTHEAST COLORADO...

CITY           SKY/WX    TMP DP  RH WIND       PRES   REMARKS
GREELEY ARPT   FAIR     -15 -21  74 CALM      30.47R
AKRON          FAIR      -8 -13  78 W12       30.43S WCI -27
BURLINGTON     FAIR       1  -8  66 NW12      30.48S WCI -16
WRAY           NOT AVBL
STERLING       FAIR     -15 -18  84 S7        30.50R WCI -31
HOLYOKE        FAIR       0  -8  71 NW7       30.52S WCI -13
FORT MORGAN    FAIR     -12 -18  77 W8        30.46S WCI -29
$$

COZ086-089-092>099-081300-
...SOUTHEAST COLORADO...

CITY           SKY/WX    TMP DP  RH WIND       PRES   REMARKS
PUEBLO         CLOUDY    15   8  73 SE6       30.43S WCI   6
LA JUNTA       FAIR      10   3  73 SE5       30.48F WCI   2
LAMAR          FAIR       2  -4  76 CALM      30.52R
SPRINGFIELD      N/A     -2  -5  87 NW7       30.47S WCI -15
$$




USA.gov is the U.S. government's official web portal to all federal, state and local government web resources and services.